Location: Unspecified
(0.0000°N, 0.0000°E)
Time: 04:40:29
(UTC+00:00)

Envisat - Pass Details

Date: 22 May 2019
Orbit: 764 x 766 km, 98.2° (Epoch: 22 May)

Event Time Altitude Azimuth Distance (km) Brightness Sun altitude
Rises 19:00:57 0° 172° (S) 3,230 6.0 -15.0°
Reaches altitude 10° 19:03:16 10° 174° (S) 2,302 5.2 -15.6°
Maximum altitude 19:08:19 72° 258° (WSW) 803 3.2 -16.7°
Drops below altitude 10° 19:13:21 10° 342° (NNW) 2,291 6.0 -17.9°
Sets 19:15:40 0° 344° (NNW) 3,214 6.8 -18.4°
